Palacios, TX

4:13 PM CST on November 20, 2017 (GMT -0600)
Palacios Municipal

Weather History for KPSX - September, 2012

Change the Weather History Date:

Thursday, September 27, 2012

  Actual Average Record
Temperature  
Mean Temperature 82 °F -  
Max Temperature 91 °F 85 °F 93 °F (2007)
Min Temperature 73 °F 67 °F 53 °F (2000)
Cooling Degree Days 16    
Growing Degree Days 32 (Base 50)    
Moisture  
Dew Point 73 °F    
Average Humidity 74    
Maximum Humidity 90    
Minimum Humidity 59    
Precipitation  
Precipitation 0.00 in - - ()
Sea Level Pressure  
Sea Level Pressure 30.01 in    
Wind  
Wind Speed 8 mph (East)    
Max Wind Speed 15 mph    
Max Gust Speed 22 mph    
Visibility 10 miles    
Events      
Averages and records for this station are not official NWS values.
T = Trace of Precipitation, MM = Missing Value Source: NWS Daily Summary

Daily Weather History Graph

Daily Weather History Graph

Search for Another Location

Airport or City:

Trip Planner

Search our weather history database for the weather conditions in past years. The results will help you decide how hot, cold, wet, or windy it might be!

Date:

Astronomy

Sep. 27, 2012 Rise Set
Actual Time 7:16 AM CDT 7:14 PM CDT
Civil Twilight 6:52 AM CDT 7:38 PM CDT
Nautical Twilight 6:25 AM CDT 8:05 PM CDT
Astronomical Twilight 5:57 AM CDT 8:33 PM CDT
Moon 5:40 PM CDT (9/27) 4:55 AM CDT (9/27)
Length of Visible Light 12h 45m
Length of Day
11h 58m
Waxing Gibbous, 94% of the Moon is Illuminated
Sep 27
Waxing Gibbous
Sep 29
Full
Oct 8
Last Quarter
Oct 15
New
Oct 21
First Quarter

Hourly Weather History & Observations

Time (CDT) Temp. Heat Index Dew Point Humidity Pressure Visibility Wind Dir Wind Speed Gust Speed Precip Events Conditions
12:53 AM 75.9 °F - 70.0 °F 82% 30.02 in 10.0 mi East 3.5 mph - N/A   Clear
1:53 AM 75.0 °F - 70.0 °F 84% 30.02 in 10.0 mi NE 3.5 mph - N/A   Clear
2:53 AM 73.0 °F - 70.0 °F 90% 30.02 in 10.0 mi NE 3.5 mph - N/A   Partly Cloudy
3:53 AM 73.0 °F - 69.1 °F 87% 30.01 in 9.0 mi NE 6.9 mph - N/A   Clear
4:53 AM 73.0 °F - 70.0 °F 90% 30.01 in 9.0 mi NE 3.5 mph - N/A   Clear
5:53 AM 73.9 °F - 70.0 °F 87% 30.01 in 9.0 mi ENE 5.8 mph - N/A   Clear
7:53 AM 75.0 °F - 71.1 °F 87% 30.04 in 7.0 mi ENE 4.6 mph - N/A   Clear
8:53 AM 79.0 °F - 73.9 °F 84% 30.04 in 10.0 mi ENE 6.9 mph - N/A   Clear
9:53 AM 84.0 °F 89.6 °F 72.0 °F 67% 30.05 in 10.0 mi East 10.4 mph - N/A   Clear
10:53 AM 87.1 °F 95.4 °F 73.9 °F 65% 30.05 in 10.0 mi East 12.7 mph - N/A   Scattered Clouds
11:07 AM 86.0 °F 93.4 °F 73.4 °F 66% 30.05 in 10.0 mi East 9.2 mph - N/A   Mostly Cloudy
11:41 AM 89.6 °F 98.2 °F 73.4 °F 59% 30.05 in 10.0 mi ESE 11.5 mph - N/A   Mostly Cloudy
11:53 AM 90.0 °F 99.0 °F 73.9 °F 59% 30.06 in 10.0 mi SE 13.8 mph 18.4 mph N/A   Mostly Cloudy
12:02 PM 89.6 °F 98.2 °F 73.4 °F 59% 30.05 in 10.0 mi SE 13.8 mph - N/A   Mostly Cloudy
12:53 PM 88.0 °F 96.5 °F 73.9 °F 63% 30.03 in 10.0 mi ESE 12.7 mph - N/A   Clear
1:53 PM 90.0 °F 99.0 °F 73.9 °F 59% 30.01 in 10.0 mi ESE 15.0 mph - N/A   Partly Cloudy
2:53 PM 87.1 °F 94.5 °F 73.0 °F 63% 29.98 in 10.0 mi SE 15.0 mph - N/A   Partly Cloudy
3:53 PM 87.1 °F 95.4 °F 73.9 °F 65% 29.98 in 10.0 mi SE 15.0 mph - N/A   Scattered Clouds
4:53 PM 87.1 °F 96.3 °F 75.0 °F 67% 29.97 in 10.0 mi ESE 12.7 mph 21.9 mph N/A   Clear
5:53 PM 86.0 °F 93.8 °F 73.9 °F 67% 29.96 in 10.0 mi SE 11.5 mph 21.9 mph N/A   Partly Cloudy
6:30 PM 84.2 °F 92.3 °F 75.2 °F 74% 29.97 in 10.0 mi ESE 12.7 mph - N/A   Mostly Cloudy
6:42 PM 84.2 °F 90.9 °F 73.4 °F 70% 29.98 in 10.0 mi ESE 12.7 mph - N/A   Scattered Clouds
6:53 PM 84.9 °F 93.3 °F 75.0 °F 72% 29.98 in 10.0 mi East 10.4 mph - N/A   Scattered Clouds
7:53 PM 82.0 °F 87.9 °F 73.9 °F 76% 29.98 in 10.0 mi East 10.4 mph - N/A   Clear
9:53 PM 81.0 °F 86.7 °F 75.0 °F 82% 30.01 in 10.0 mi East 6.9 mph - N/A   Clear
10:53 PM 80.1 °F 84.5 °F 73.9 °F 81% 30.01 in 10.0 mi ENE 4.6 mph - N/A   Partly Cloudy
11:53 PM 80.1 °F 85.1 °F 75.0 °F 85% 30.01 in 10.0 mi East 5.8 mph - N/A   Partly Cloudy